sat.trackr.live / text

‹ back to catalog

STARLINK-5554

NORAD 56338 · 2023-058X

PAYLOAD ACTIVE UNKNOWN

§ Identity

Operator
Country
US
Launch date
2023-04-27
Launch site
AFWTR
Launch vehicle
Mass (kg)
RCS (m²)

Purposes: comms

External: N2YO · Heavens-Above · Gunter

§ Orbital elements

Epoch: 2026-05-24T23:09:41.291136Z

Period
95.64 min
Inclination
97.4473°
Eccentricity
0.0002619
Mean motion
15.05658073 rev/d
Perigee alt
547.7 km
Apogee alt
551.3 km
Semi-major
6,927.6 km
B*
-3.2582e-5
RAAN
144.9626°
Arg perigee
110.5082°
Mean anomaly
249.6426°
Rev number
16,960

§ Raw data

STARLINK-55541 56338U 23058X   26144.96506124 -.00000529  00000+0 -32582-4 0  99942 56338  97.4473 144.9626 0002619 110.5082 249.6426 15.05658073169603

JSON: /api/v1/satellites/56338 · /tle

For live sub-satellite position, see the globe view (requires WebGL).

§ Visibility from observer

Set your observer location to see the next 7 days of passes ≥ 10°. The values pass through the URL so the page stays shareable.

No JS? Fill the form by hand. The geolocation button needs JavaScript.